Weather reports worldwide

Advertisment
Luqa, Malta (16597): temperature & dewpoint: 12.08.2019 03:00:00 - 18.08.2019 03:00:00 (CEST)Luqa, Malta (16597): wind speed: 12.08.2019 03:00:00 - 18.08.2019 03:00:00 (CEST)Luqa, Malta (16597): wind direction: 12.08.2019 03:00:00 - 18.08.2019 03:00:00 (CEST)Luqa, Malta (16597): reduced air pressure: 12.08.2019 03:00:00 - 18.08.2019 03:00:00 (CEST)Luqa, Malta (16597): visibility: 12.08.2019 03:00:00 - 18.08.2019 03:00:00 (CEST)
Date & Time tt [°C] td [°C] ff [km/h] ff [kn] dd ppp [hPa] vv [km]
18.08.2019 03:00:00 25,0 21,0 5 3 E - 10
18.08.2019 02:00:00 25,0 20,8 9 5 NE 1015,8 10
18.08.2019 01:00:00 25,0 20,0 8 4 ENE - 10
18.08.2019 00:00:00 25,0 21,0 9 5 NE - 10
17.08.2019 23:00:00 25,3 20,9 9 5 NE 1016,0 10
17.08.2019 22:00:00 25,0 21,0 9 5 NE - 10
17.08.2019 21:00:00 26,0 21,0 8 4 NE - 10
17.08.2019 20:00:00 26,7 21,4 11 6 NE 1015,2 10
17.08.2019 19:00:00 27,0 21,0 13 7 NE - 10
17.08.2019 18:00:00 27,0 21,0 9 5 ENE - 10
17.08.2019 17:00:00 29,2 21,6 8 4 NNE 1015,1 10
17.08.2019 16:00:00 30,0 22,0 5 3 NNE - 10
17.08.2019 15:00:00 29,0 22,0 9 5 NE - 10
17.08.2019 14:00:00 30,1 22,1 11 6 NNE 1015,6 10
17.08.2019 13:00:00 29,0 22,0 15 8 NE - 10
17.08.2019 12:00:00 29,0 22,0 9 5 ENE - 10
17.08.2019 11:00:00 29,1 22,2 11 6 NNE 1016,2 10
17.08.2019 10:00:00 28,0 22,0 5 3 N - 10
17.08.2019 09:00:00 28,0 23,0 11 6 N - 10
17.08.2019 08:00:00 25,5 23,5 5 3 W 1015,4 10
17.08.2019 07:00:00 25,0 23,0 8 4 W - 10
17.08.2019 06:00:00 24,0 23,0 8 4 WNW - 10
17.08.2019 05:00:00 24,1 22,4 8 4 SW 1014,8 10
17.08.2019 04:00:00 24,0 22,0 8 4 WSW - 10
17.08.2019 03:00:00 24,0 22,0 5 3 W - 10
17.08.2019 02:00:00 24,0 21,9 13 7 SW 1015,2 10
17.08.2019 01:00:00 24,0 22,0 5 3 W - 10
17.08.2019 00:00:00 24,0 22,0 5 3 WNW - 10
16.08.2019 23:00:00 24,8 22,1 8 4 WNW 1015,8 10
16.08.2019 22:00:00 25,0 22,0 8 4 NW - 10
16.08.2019 21:00:00 26,0 22,0 11 6 WNW - 10
16.08.2019 20:00:00 26,4 19,8 11 6 WNW 1014,9 10
16.08.2019 19:00:00 28,0 19,0 9 5 NW - 10
16.08.2019 18:00:00 30,0 14,0 16 9 NNW - 10
16.08.2019 17:00:00 30,3 15,3 16 9 NW 1014,8 10
16.08.2019 16:00:00 30,0 16,0 11 6 NW - 10
16.08.2019 15:00:00 31,0 14,0 18 10 NNW - 10
16.08.2019 14:00:00 30,6 17,2 13 7 - 1015,2 10
16.08.2019 13:00:00 30,0 18,0 13 7 NNE - 10
16.08.2019 12:00:00 30,0 18,0 13 7 NNE - 10
16.08.2019 11:00:00 29,0 18,8 11 6 ENE 1015,8 10
16.08.2019 10:00:00 29,0 19,0 11 6 NNE - 10
16.08.2019 09:00:00 28,0 19,0 15 8 NNE - 10
16.08.2019 08:00:00 25,7 22,2 15 8 N 1015,1 10
16.08.2019 07:00:00 25,0 23,0 13 7 N - 10
16.08.2019 06:00:00 25,0 23,0 13 7 N - 10
16.08.2019 05:00:00 24,6 22,7 18 10 N 1013,7 10
16.08.2019 04:00:00 25,0 23,0 15 8 N - 10
16.08.2019 03:00:00 25,0 23,0 15 8 N - 10
16.08.2019 02:00:00 25,2 22,2 13 7 N 1014,0 10
16.08.2019 01:00:00 25,0 20,0 16 9 NNW - 10
16.08.2019 00:00:00 25,0 21,0 4 2 - - 10
15.08.2019 23:00:00 25,3 20,9 9 5 WNW 1014,8 10
15.08.2019 22:00:00 25,0 20,0 5 3 W - 10
15.08.2019 21:00:00 26,0 20,0 13 7 NNW - 10
15.08.2019 20:00:00 26,6 20,3 16 9 NNW 1014,2 10
15.08.2019 19:00:00 28,0 21,0 21 11 N - 10
15.08.2019 18:00:00 29,0 19,0 18 10 N - 10
15.08.2019 17:00:00 30,4 16,8 18 10 N 1013,1 10
15.08.2019 16:00:00 31,0 16,0 22 12 NW - 10
15.08.2019 15:00:00 31,0 16,0 21 11 NNE - 10
15.08.2019 14:00:00 31,6 11,6 18 10 N 1013,7 10
15.08.2019 13:00:00 31,0 13,0 22 12 N - 10
15.08.2019 12:00:00 30,0 14,0 21 11 NNE - 10
15.08.2019 11:00:00 28,8 17,4 26 14 N 1013,9 10
15.08.2019 10:00:00 29,0 17,0 26 14 NNW - 10
15.08.2019 09:00:00 28,0 18,0 26 14 N - 10
15.08.2019 08:00:00 26,3 17,9 21 11 N 1013,3 10
15.08.2019 07:00:00 25,0 17,0 16 9 NNW - 10
15.08.2019 06:00:00 24,0 18,0 16 9 NNW - 10
15.08.2019 05:00:00 24,2 18,2 16 9 NNW 1012,2 10
15.08.2019 04:00:00 24,0 18,0 21 11 NNW - 10
15.08.2019 03:00:00 25,0 19,0 18 10 NNW - 10
15.08.2019 02:00:00 26,1 17,4 22 12 NNW 1012,4 10
15.08.2019 01:00:00 26,0 19,0 24 13 N - 10
15.08.2019 00:00:00 27,0 20,0 34 18 NNW - 10
14.08.2019 23:00:00 26,2 18,3 28 15 NNW 1011,8 10
14.08.2019 22:00:00 26,0 19,0 35 19 NNW - 10
14.08.2019 21:00:00 26,0 21,0 31 17 NW - 10
14.08.2019 20:00:00 26,6 20,6 42 23 NW 1011,0 10
14.08.2019 19:00:00 27,0 20,0 39 21 NW - 10
14.08.2019 18:00:00 29,0 18,0 46 25 WNW - 10
14.08.2019 17:00:00 30,2 16,6 46 25 NW 1010,7 10
14.08.2019 16:00:00 30,0 19,0 42 23 NW - 10
14.08.2019 15:00:00 31,0 21,0 41 22 NW - 10
14.08.2019 14:00:00 32,2 21,2 34 18 NW 1011,6 10
14.08.2019 13:00:00 33,0 21,0 31 17 NW - 10
14.08.2019 12:00:00 34,0 18,0 24 13 NW - 10
14.08.2019 11:00:00 33,3 18,5 28 15 N 1011,3 10
14.08.2019 10:00:00 33,0 18,0 26 14 NNW - 10
14.08.2019 09:00:00 32,0 19,0 21 11 NNE - 10
14.08.2019 08:00:00 29,1 22,0 18 10 NNE 1010,2 10
14.08.2019 07:00:00 28,0 24,0 22 12 N - 10
14.08.2019 06:00:00 26,0 25,0 21 11 NNW - 10
14.08.2019 05:00:00 26,7 25,0 21 11 NW 1009,5 10
14.08.2019 04:00:00 26,0 25,0 18 10 WNW - 10
14.08.2019 03:00:00 27,0 25,0 13 7 WNW - 10
14.08.2019 02:00:00 26,7 24,5 11 6 W 1010,0 10
14.08.2019 01:00:00 27,0 24,0 11 6 WNW - 10
14.08.2019 00:00:00 27,0 24,0 11 6 WNW - 10
13.08.2019 23:00:00 27,2 23,4 13 7 WNW 1010,2 10
13.08.2019 22:00:00 27,0 24,0 8 4 NNW - 10
13.08.2019 21:00:00 28,0 23,0 9 5 NNW - 10
13.08.2019 20:00:00 29,5 21,5 13 7 NW 1009,8 10
13.08.2019 19:00:00 31,0 22,0 21 11 N - 10
13.08.2019 18:00:00 32,0 22,0 22 12 N - 10
13.08.2019 17:00:00 34,6 20,3 18 10 NNW 1009,7 10
13.08.2019 16:00:00 34,0 22,0 18 10 N - 10
13.08.2019 15:00:00 34,0 23,0 18 10 N - 10
13.08.2019 14:00:00 32,9 24,9 13 7 NNE 1009,9 10
13.08.2019 13:00:00 33,0 25,0 15 8 ENE - 10
13.08.2019 12:00:00 34,0 24,0 5 3 E - 10
13.08.2019 11:00:00 32,9 22,3 5 3 ENE 1010,5 10
13.08.2019 10:00:00 32,0 23,0 9 5 ENE - 10
13.08.2019 09:00:00 31,0 21,0 13 7 NNW - 10
13.08.2019 08:00:00 28,0 24,6 9 5 NNW 1010,0 10
13.08.2019 07:00:00 26,0 24,0 9 5 NNW - 10
13.08.2019 06:00:00 26,0 24,0 8 4 NNW - 10
13.08.2019 05:00:00 26,6 23,1 9 5 NW 1009,5 10
13.08.2019 04:00:00 26,0 21,0 9 5 NW - 10
13.08.2019 03:00:00 26,0 20,0 8 4 WNW - 10
13.08.2019 02:00:00 26,4 20,4 9 5 NW 1010,7 10
13.08.2019 01:00:00 26,0 23,0 9 5 NW - 10
13.08.2019 00:00:00 26,0 22,0 5 3 NW - 10
12.08.2019 23:00:00 26,8 21,9 5 3 WNW 1011,7 10
12.08.2019 22:00:00 28,0 23,0 9 5 NW - 10
12.08.2019 21:00:00 28,0 23,0 8 4 NNW - 10
12.08.2019 20:00:00 29,3 24,1 5 3 NNE 1010,1 10
12.08.2019 19:00:00 30,0 24,0 8 4 E - 10
12.08.2019 18:00:00 31,0 24,0 15 8 E - 10
12.08.2019 17:00:00 33,6 22,8 16 9 ENE 1010,3 10
12.08.2019 16:00:00 34,0 23,0 11 6 SSE - 10
12.08.2019 15:00:00 34,0 21,0 8 4 NE - 10
12.08.2019 14:00:00 34,0 22,3 15 8 ENE 1011,4 10
12.08.2019 13:00:00 33,0 22,0 11 6 NE - 10
12.08.2019 12:00:00 33,0 22,0 5 3 ENE - 10
12.08.2019 11:00:00 32,6 19,8 4 2 - 1012,3 10
12.08.2019 10:00:00 32,0 21,0 9 5 ENE - 10
12.08.2019 09:00:00 31,0 22,0 4 2 - - 10
12.08.2019 08:00:00 28,1 21,6 5 3 N 1011,9 10
12.08.2019 07:00:00 26,0 22,0 8 4 NW - 10
12.08.2019 06:00:00 25,0 21,0 8 4 NNW - 10
12.08.2019 05:00:00 24,9 22,1 8 4 NNW 1011,3 10
12.08.2019 04:00:00 26,0 24,0 8 4 NW - 10
12.08.2019 03:00:00 26,0 25,0 5 3 NNW - 10

tt = temperature
td = dewpoint
ff = wind speed
dd = wind direction
ppp = reduced air pressure
vv = visibility

Next stations